Wind_Speed
7 7 6 6 6 5 5 5 5 4 4 3 3 3 3 3 3 3 3 3 3 3 3 3 3 3 3 3 3 3 4 4 5 5 6 6 6 6 6 6 6 7 7
6 6 6 5 5 5 5 5 4 4 4 3 2 2 2 2 2 2 2 2 2 2 3 3 3 3 3 3 3 4 4 4 5 5 6 6 7 7 7 7 7 7 7
6 5 5 5 4 4 4 4 4 4 4 3 2 2 2 2 2 2 2 2 2 2 2 3 3 3 3 3 4 4 4 5 5 6 6 7 7 6 6 7 7 7 7
5 5 4 4 3 3 4 4 4 4 3 3 2 2 1 1 1 2 2 2 2 2 2 2 2 3 3 3 3 4 4 5 6 6 6 6 6 6 7 7 6 6 7
5 4 4 3 3 3 3 4 3 3 3 2 2 2 1 1 1 1 2 2 2 2 2 2 2 3 3 3 3 4 4 5 6 6 6 6 7 7 7 7 6 7 7
5 4 3 2 2 2 3 3 3 3 2 2 2 2 2 1 1 2 2 3 2 2 2 2 2 3 3 3 3 4 4 4 5 6 7 7 7 6 6 6 7 7 6
6 5 3 2 2 2 2 2 2 2 2 2 2 2 2 1 1 2 2 3 3 3 2 2 2 2 3 3 4 4 4 4 4 6 6 6 6 6 6 7 7 7 6
7 6 5 3 2 2 1 1 1 1 2 2 2 2 2 2 1 2 2 3 2 3 2 2 2 3 3 3 3 4 4 4 5 5 6 5 5 5 6 6 6 6 6
8 7 6 5 3 2 1 1 1 1 1 1 1 1 1 1 1 1 2 2 2 2 2 3 3 3 3 3 3 4 4 5 5 5 5 5 5 5 6 6 6 6 6
9 8 6 5 4 2 1 1 1 1 1 1 0 0 1 1 1 1 1 1 2 2 2 3 3 4 4 4 4 4 4 5 5 5 5 5 5 5 5 5 6 6 5
10 8 7 6 5 3 2 1 1 1 1 2 1 1 1 1 1 1 1 2 2 2 2 3 3 4 4 4 4 4 4 4 5 5 4 4 5 5 5 5 5 5 5
11 10 9 7 6 4 2 2 2 2 2 2 2 2 2 1 1 0 1 1 2 2 2 3 3 3 3 3 3 4 4 4 4 4 4 4 4 4 4 4 5 4 4
12 11 10 8 6 5 4 3 3 2 2 2 3 2 2 2 1 0 1 1 1 2 2 2 2 3 3 3 3 3 3 3 3 4 4 3 3 4 4 4 3 3 3
12 11 10 9 7 6 5 3 2 2 2 2 3 3 2 2 2 1 1 1 1 1 1 2 2 3 3 3 3 2 2 2 2 3 3 3 3 3 3 2 2 2 2
11 10 9 8 7 7 5 4 2 2 2 2 2 3 3 3 3 2 2 2 2 1 1 2 2 2 3 3 2 2 2 1 2 2 2 2 2 2 2 2 2 2 2
11 10 9 8 7 7 6 4 2 1 2 3 3 4 4 4 3 3 3 3 2 1 1 2 2 2 2 2 2 1 1 1 1 1 1 1 1 1 1 1 1 2 2
12 11 10 8 7 6 5 4 2 1 2 3 3 4 4 4 4 4 3 3 2 2 1 1 2 2 2 1 1 1 0 1 1 0 1 1 1 1 1 2 2 2 3
13 12 11 10 8 6 5 4 2 2 3 4 4 4 4 5 5 4 3 3 3 3 2 2 2 1 1 1 1 1 1 1 1 1 1 1 1 1 1 2 2 3 3
13 12 12 11 10 7 5 3 2 2 3 4 4 5 4 5 5 4 4 4 4 3 3 3 3 2 2 2 2 2 2 2 2 2 2 2 2 2 2 2 2 3 3
14 13 12 12 10 7 5 4 1 3 3 4 5 5 5 5 5 5 5 5 4 4 4 4 4 3 3 3 3 3 3 3 3 3 3 3 3 3 4 4 4 4 4
15 14 13 11 9 6 5 3 2 3 4 5 5 5 5 5 5 5 5 5 5 5 4 4 4 4 4 4 4 4 4 4 4 5 5 5 5 5 5 5 5 6 6
16 15 14 11 7 4 4 2 3 4 4 5 5 6 6 6 6 6 6 6 6 6 5 5 5 5 5 5 5 5 5 6 6 7 7 7 7 7 7 7 7 7 8
16 14 13 11 7 4 3 2 3 4 5 6 6 6 5 6 6 6 7 7 7 7 7 6 6 7 7 6 7 7 7 8 8 8 8 8 9 9 9 9 9 9 10
14 12 12 10 6 4 3 2 3 4 5 6 6 5 5 5 6 7 7 7 7 7 7 7 8 8 8 8 8 8 9 9 9 9 9 10 10 11 10 11 12 11 12
14 12 11 10 6 5 3 1 2 3 4 5 5 6 6 7 7 8 8 8 8 8 8 8 8 9 9 9 9 10 10 11 11 11 10 11 11 11 12 13 14 14 14
13 11 10 9 7 6 4 2 0 2 4 5 5 5 6 6 7 8 9 9 10 9 9 9 9 10 10 11 12 12 12 12 12 13 13 13 13 14 15 15 15 16 16
Wind_Direction
78 81 83 79 74 66 58 51 44 31 19 24 37 37 38 39 47 64 76 77 79 81 81 83 89 89 89 90 98 102 100 102 107 103 106 106 106 107 108 104 105 105 105
72 76 76 74 68 59 51 45 36 25 13 13 22 34 25 37 43 58 68 67 72 78 84 83 85 87 86 90 96 103 105 105 114 111 109 111 109 107 104 106 106 103 104
65 69 71 69 63 53 46 44 36 27 20 12 18 26 19 29 40 55 59 59 65 74 83 91 90 84 83 88 97 105 105 108 114 116 110 109 111 108 105 108 107 105 105
57 61 64 63 60 49 41 40 34 34 29 22 20 21 15 18 41 54 50 46 43 52 71 85 81 76 76 77 94 107 108 106 109 115 114 113 112 111 110 110 108 110 108
45 50 57 61 58 50 43 40 37 36 31 20 11 2 356 348 4 32 42 31 30 44 64 72 68 67 68 75 95 110 112 106 108 114 114 114 113 112 112 111 111 114 110
33 29 34 42 42 41 40 38 32 32 20 9 1 344 341 353 20 31 30 23 25 41 59 64 64 61 66 76 89 108 113 108 106 111 109 112 112 109 111 115 113 113 113
29 21 17 12 7 19 31 37 44 27 6 353 344 340 348 356 23 23 16 18 32 44 50 54 56 60 67 71 83 95 108 108 108 112 111 113 113 110 111 118 116 119 118
27 23 18 4 347 341 359 3 23 22 10 358 345 338 343 344 360 7 4 12 26 40 45 50 58 62 62 65 76 91 106 113 116 119 117 118 118 118 118 120 121 120 117
23 20 14 8 349 327 303 292 300 314 329 327 332 313 328 335 360 353 350 3 24 37 43 54 69 76 69 71 84 98 109 118 119 120 117 119 122 125 126 129 126 123 117
19 12 8 13 10 3 334 284 270 259 285 265 261 253 269 316 339 353 1 25 39 45 51 60 71 83 78 80 93 98 106 117 118 117 116 121 126 128 131 136 135 126 116
21 16 9 13 17 17 8 339 296 261 251 226 233 242 259 297 329 10 31 43 50 59 69 67 73 88 83 91 98 97 105 110 116 120 119 124 131 134 135 139 138 130 123
22 20 13 14 17 15 3 340 316 280 255 223 229 232 241 255 279 7 35 61 63 67 73 72 80 93 92 100 103 103 109 111 116 123 120 122 129 136 139 142 142 133 129
20 21 17 15 18 10 352 328 306 268 243 232 228 214 217 224 236 180 105 83 62 70 75 97 97 100 100 103 105 108 115 115 111 128 127 126 129 133 138 147 151 150 150
19 18 20 16 9 1 349 339 306 255 246 239 236 211 209 217 223 193 160 125 103 78 86 128 117 107 103 108 106 119 122 129 129 139 139 141 142 141 146 157 164 167 176
19 18 17 13 6 359 354 348 331 281 247 246 223 206 216 213 205 203 192 172 141 108 106 140 137 117 111 121 120 123 115 121 144 148 148 152 149 150 163 179 188 189 190
13 17 19 12 4 355 355 356 342 276 226 219 204 210 211 197 191 196 191 188 171 152 140 161 161 143 142 138 126 126 84 78 117 149 146 158 172 187 195 204 221 219 222
8 8 9 5 0 353 346 341 335 263 208 201 198 203 203 194 185 186 189 192 192 196 186 177 171 174 175 156 139 148 343 33 61 128 185 190 201 217 228 235 241 248 249
5 1 356 352 348 344 336 323 293 232 209 198 199 200 197 192 188 194 198 200 208 210 204 199 196 191 203 210 206 209 267 301 302 270 265 264 258 254 253 256 260 262 257
358 354 350 344 339 336 330 320 296 211 202 202 208 209 206 198 197 197 201 210 220 219 218 224 224 231 231 228 232 226 246 276 280 277 273 277 280 279 280 281 277 268 264
353 350 347 343 336 326 325 318 236 198 208 213 209 214 208 205 206 209 213 216 218 221 228 231 234 241 238 235 240 243 252 263 273 279 272 271 279 282 285 279 273 267 272
352 351 348 341 334 316 308 304 225 203 214 217 215 215 211 211 211 215 215 219 220 223 228 231 238 241 239 239 246 254 254 255 262 267 266 267 273 277 280 278 276 271 272
353 352 352 347 334 313 306 281 230 221 211 204 213 218 217 216 213 213 214 218 221 225 230 233 239 240 242 245 251 258 266 263 264 265 268 269 271 275 274 274 276 275 275
354 355 354 352 350 327 309 258 235 218 208 211 217 218 217 215 216 219 220 224 230 232 237 240 246 248 249 252 255 259 262 264 268 269 270 271 271 275 274 272 278 280 279
354 357 358 358 0 357 345 288 226 209 214 214 216 218 220 222 223 225 226 231 235 239 244 247 248 251 254 256 259 259 262 267 268 269 272 272 270 273 274 277 277 279 279
350 353 357 2 13 10 359 346 218 218 213 210 216 225 226 226 231 233 234 233 237 243 247 249 250 253 256 260 261 261 263 266 267 268 271 274 275 277 277 278 280 279 278
348 350 359 7 14 13 15 24 2 223 216 217 225 231 228 229 238 241 242 243 245 247 252 255 256 258 261 264 264 264 264 264 266 265 267 272 276 275 277 279 281 281 281
Height
5902 5901 5901 5902 5902 5902 5902 5902 5902 5902 5902 5902 5902 5902 5901 5901 5900 5900 5900 5899 5899 5898 5898 5898 5897 5897 5896 5896 5896 5896 5895 5895 5895 5895 5895 5894 5894 5894 5894 5894 5894 5895 5895
5903 5902 5903 5903 5903 5903 5903 5903 5903 5903 5903 5903 5903 5902 5902 5902 5901 5900 5900 5900 5899 5899 5899 5898 5898 5898 5897 5897 5896 5896 5896 5895 5895 5895 5895 5895 5895 5895 5895 5895 5895 5895 5896
5904 5904 5904 5904 5904 5904 5904 5904 5904 5904 5904 5904 5903 5903 5903 5902 5902 5901 5901 5901 5900 5900 5899 5899 5899 5898 5898 5897 5897 5897 5896 5896 5896 5896 5896 5896 5896 5896 5896 5896 5896 5896 5897
5904 5904 5904 5904 5904 5905 5905 5905 5905 5904 5905 5904 5904 5904 5903 5903 5903 5902 5902 5901 5900 5900 5900 5900 5899 5899 5898 5898 5898 5897 5897 5897 5896 5896 5896 5897 5897 5897 5897 5897 5897 5897 5897
5905 5905 5905 5905 5905 5905 5905 5905 5905 5905 5905 5905 5905 5904 5904 5904 5903 5903 5902 5902 5901 5901 5900 5900 5900 5900 5899 5899 5898 5898 5898 5897 5897 5897 5897 5897 5898 5898 5898 5898 5898 5898 5898
5906 5906 5906 5905 5905 5905 5905 5905 5905 5905 5906 5905 5905 5905 5904 5904 5904 5904 5903 5902 5902 5901 5901 5901 5901 5900 5900 5899 5899 5899 5898 5898 5898 5898 5898 5898 5898 5898 5898 5899 5899 5899 5899
5906 5906 5906 5905 5905 5906 5906 5905 5906 5906 5906 5906 5905 5905 5905 5905 5904 5904 5903 5903 5902 5902 5902 5901 5901 5901 5900 5900 5900 5899 5899 5899 5898 5898 5899 5899 5899 5899 5899 5899 5900 5900 5900
5906 5906 5906 5905 5905 5905 5905 5905 5906 5906 5906 5906 5906 5906 5905 5905 5905 5904 5904 5904 5903 5903 5903 5902 5902 5901 5901 5901 5900 5900 5900 5900 5899 5899 5900 5900 5900 5900 5900 5901 5901 5901 5901
5907 5906 5906 5905 5905 5905 5905 5905 5905 5905 5906 5906 5906 5906 5906 5905 5905 5905 5905 5904 5904 5903 5903 5903 5903 5902 5902 5902 5901 5901 5901 5901 5900 5900 5900 5900 5900 5901 5901 5901 5902 5902 5902
5907 5906 5905 5905 5905 5904 5904 5905 5905 5905 5905 5906 5906 5906 5906 5905 5905 5905 5905 5905 5904 5904 5904 5904 5903 5903 5903 5902 5902 5902 5902 5901 5901 5901 5901 5901 5901 5901 5902 5902 5902 5903 5903
5907 5906 5905 5904 5904 5904 5904 5904 5904 5905 5905 5905 5905 5905 5906 5905 5905 5905 5905 5905 5905 5904 5904 5904 5904 5904 5903 5903 5903 5903 5903 5902 5902 5902 5902 5902 5902 5902 5902 5903 5903 5903 5903
5907 5906 5905 5904 5904 5903 5903 5903 5904 5904 5904 5904 5905 5905 5905 5905 5905 5905 5905 5905 5905 5905 5905 5905 5905 5905 5904 5904 5904 5904 5904 5903 5903 5903 5903 5903 5903 5903 5903 5904 5904 5904 5904
5908 5906 5906 5904 5904 5903 5903 5903 5903 5903 5903 5903 5904 5904 5905 5905 5905 5905 5905 5905 5905 5905 5905 5905 5905 5905 5905 5905 5905 5904 5904 5904 5904 5904 5904 5904 5904 5904 5904 5904 5904 5904 5904
5909 5907 5905 5904 5903 5903 5902 5902 5902 5902 5902 5902 5903 5903 5904 5904 5905 5905 5905 5905 5905 5906 5906 5905 5906 5906 5906 5906 5905 5905 5905 5905 5905 5905 5905 5905 5905 5905 5905 5905 5905 5905 5905
5909 5907 5906 5904 5903 5902 5901 5901 5901 5901 5901 5902 5902 5903 5903 5904 5905 5905 5905 5905 5906 5906 5906 5906 5906 5906 5906 5906 5906 5906 5906 5906 5906 5906 5905 5905 5905 5905 5905 5905 5905 5905 5905
5908 5906 5905 5904 5903 5902 5901 5900 5900 5900 5900 5901 5901 5902 5903 5904 5904 5905 5905 5905 5906 5906 5906 5906 5906 5906 5907 5907 5907 5906 5906 5906 5906 5906 5906 5906 5905 5905 5905 5905 5905 5905 5905
5907 5905 5904 5903 5902 5901 5900 5900 5899 5899 5899 5900 5901 5902 5902 5903 5904 5905 5905 5906 5906 5906 5906 5906 5906 5907 5907 5907 5907 5907 5907 5907 5907 5906 5906 5906 5906 5905 5905 5905 5905 5905 5905
5907 5905 5903 5902 5901 5900 5899 5899 5898 5899 5899 5900 5901 5901 5902 5903 5904 5904 5905 5905 5906 5906 5906 5906 5907 5907 5907 5907 5907 5907 5907 5907 5907 5907 5906 5906 5906 5905 5905 5905 5904 5904 5904
5906 5904 5902 5900 5899 5898 5898 5898 5898 5898 5899 5899 5900 5901 5902 5902 5903 5904 5904 5905 5905 5906 5906 5906 5907 5907 5907 5907 5907 5907 5907 5907 5907 5907 5906 5906 5906 5905 5905 5905 5904 5904 5903
5906 5903 5901 5899 5897 5896 5896 5896 5897 5897 5898 5899 5899 5900 5901 5902 5903 5903 5903 5904 5904 5905 5905 5906 5906 5906 5906 5906 5907 5907 5907 5907 5906 5906 5906 5905 5905 5905 5904 5904 5904 5903 5903
5905 5903 5900 5898 5896 5895 5895 5895 5895 5896 5897 5898 5898 5899 5900 5901 5902 5902 5903 5903 5904 5904 5904 5905 5906 5905 5906 5906 5906 5906 5906 5906 5906 5905 5905 5905 5904 5904 5903 5903 5902 5902 5902
5905 5902 5899 5897 5895 5894 5894 5894 5894 5895 5895 5897 5898 5898 5899 5900 5900 5901 5902 5902 5903 5903 5904 5904 5904 5905 5905 5905 5905 5905 5905 5906 5905 5904 5904 5904 5903 5902 5902 5901 5901 5900 5900
5904 5901 5899 5896 5894 5893 5893 5893 5894 5894 5895 5896 5897 5898 5898 5899 5899 5900 5901 5901 5902 5902 5903 5903 5903 5904 5904 5904 5904 5904 5904 5904 5904 5903 5903 5902 5901 5901 5900 5899 5899 5898 5897
5903 5901 5898 5896 5894 5893 5893 5892 5893 5893 5894 5895 5896 5896 5897 5897 5898 5898 5899 5900 5900 5901 5901 5901 5902 5902 5902 5902 5902 5902 5902 5902 5902 5901 5901 5900 5899 5899 5898 5897 5896 5896 5895
5903 5900 5898 5896 5894 5893 5892 5891 5892 5892 5893 5894 5894 5895 5895 5896 5896 5897 5897 5898 5898 5899 5899 5899 5900 5900 5900 5900 5900 5900 5900 5899 5899 5899 5898 5898 5897 5896 5895 5895 5894 5893 5891
5902 5900 5897 5896 5894 5893 5892 5891 5891 5891 5891 5892 5893 5893 5893 5894 5894 5895 5895 5896 5896 5896 5897 5897 5897 5898 5897 5897 5897 5897 5897 5896 5896 5896 5895 5895 5894 5893 5892 5891 5890 5889 5888